Hourly Weather Celiny

Today, 16 June, Wednesday

Time Temperature Precipitation Wind Pressure Humidity
00:00 +14°C° 0 mm 0 mps 739 mmHg 75%
01:00 +14°C° 0 mm 0 mps 739 mmHg 75%
02:00 +14°C° 0 mm 0 mps 738 mmHg 75%
03:00 +14°C° 0 mm 0 mps 738 mmHg 75%
04:00 +15°C° 0 mm 1 mps 738 mmHg 75%
05:00 +18°C° 0 mm 1 mps 739 mmHg 72%
06:00 +19°C° 0 mm 1 mps 739 mmHg 68%
07:00 +21°C° 0 mm 1 mps 739 mmHg 64%
08:00 +22°C° 0.1 mm 1 mps 739 mmHg 62%
09:00 +24°C° 0.1 mm 1 mps 739 mmHg 59%
10:00 +23°C° 0.1 mm 0 mps 740 mmHg 57%
11:00 +25°C° 0.4 mm 1 mps 739 mmHg 57%
12:00 +26°C° 0.4 mm 1 mps 739 mmHg 57%
13:00 +26°C° 0.4 mm 1 mps 739 mmHg 57%
14:00 +25°C° 0.9 mm 1 mps 739 mmHg 61%
15:00 +25°C° 0.9 mm 2 mps 739 mmHg 65%
16:00 +24°C° 0.9 mm 2 mps 739 mmHg 69%
17:00 +23°C° 0.5 mm 2 mps 739 mmHg 75%
18:00 +21°C° 0.5 mm 3 mps 739 mmHg 81%
19:00 +20°C° 0.5 mm 3 mps 739 mmHg 87%
20:00 +19°C° 0 mm 3 mps 739 mmHg 89%
21:00 +18°C° 0 mm 2 mps 740 mmHg 91%
22:00 +17°C° 0 mm 2 mps 740 mmHg 93%
23:00 +16°C° 0 mm 2 mps 740 mmHg 93%

Tomorrow, 17 June, Thursday

Time Temperature Precipitation Wind Pressure Humidity
00:00 +16°C° 0 mm 2 mps 740 mmHg 93%
01:00 +15°C° 0 mm 2 mps 740 mmHg 93%
02:00 +15°C° 0 mm 2 mps 740 mmHg 93%
03:00 +14°C° 0 mm 2 mps 740 mmHg 93%
04:00 +14°C° 0 mm 2 mps 740 mmHg 93%
05:00 +16°C° 0 mm 3 mps 740 mmHg 89%
06:00 +17°C° 0 mm 3 mps 741 mmHg 85%
07:00 +19°C° 0 mm 4 mps 741 mmHg 81%
08:00 +20°C° 0 mm 4 mps 741 mmHg 75%
09:00 +22°C° 0 mm 4 mps 741 mmHg 69%
10:00 +23°C° 0 mm 4 mps 741 mmHg 63%
11:00 +25°C° 0 mm 4 mps 741 mmHg 58%
12:00 +26°C° 0 mm 3 mps 741 mmHg 53%
13:00 +26°C° 0 mm 3 mps 741 mmHg 48%
14:00 +26°C° 0 mm 3 mps 741 mmHg 48%
15:00 +26°C° 0 mm 3 mps 741 mmHg 49%
16:00 +26°C° 0 mm 3 mps 741 mmHg 49%
17:00 +25°C° 0 mm 3 mps 741 mmHg 57%
18:00 +22°C° 0 mm 3 mps 740 mmHg 66%
19:00 +20°C° 0 mm 3 mps 740 mmHg 74%
20:00 +19°C° 0 mm 3 mps 741 mmHg 78%
21:00 +18°C° 0 mm 2 mps 741 mmHg 83%
22:00 +17°C° 0 mm 2 mps 741 mmHg 87%
23:00 +16°C° 0 mm 2 mps 741 mmHg 89%

Day after tomorrow, 18 June, Friday

Time Temperature Precipitation Wind Pressure Humidity
00:00 +16°C° 0 mm 2 mps 741 mmHg 92%
01:00 +16°C° 0 mm 2 mps 740 mmHg 94%
02:00 +16°C° 0 mm 2 mps 740 mmHg 94%
03:00 +16°C° 0 mm 2 mps 740 mmHg 94%
04:00 +16°C° 0 mm 2 mps 740 mmHg 95%
05:00 +18°C° 0 mm 3 mps 740 mmHg 88%
06:00 +20°C° 0 mm 4 mps 741 mmHg 82%
07:00 +21°C° 0 mm 5 mps 741 mmHg 76%
08:00 +23°C° 0 mm 5 mps 741 mmHg 70%
09:00 +25°C° 0 mm 5 mps 741 mmHg 65%
10:00 +27°C° 0 mm 5 mps 741 mmHg 60%
11:00 +28°C° 0 mm 5 mps 741 mmHg 58%
12:00 +28°C° 0 mm 5 mps 740 mmHg 55%
13:00 +29°C° 0 mm 5 mps 740 mmHg 53%
14:00 +29°C° 0 mm 5 mps 740 mmHg 55%
15:00 +29°C° 0 mm 5 mps 740 mmHg 56%
16:00 +29°C° 0 mm 5 mps 740 mmHg 58%
17:00 +27°C° 0 mm 4 mps 739 mmHg 64%
18:00 +26°C° 0 mm 4 mps 739 mmHg 71%
19:00 +24°C° 0 mm 3 mps 739 mmHg 77%
20:00 +23°C° 0 mm 4 mps 739 mmHg 80%
21:00 +22°C° 0 mm 4 mps 739 mmHg 82%
22:00 +21°C° 0 mm 4 mps 740 mmHg 84%
23:00 +20°C° 0 mm 4 mps 740 mmHg 87%

19 June, Saturday

Time Temperature Precipitation Wind Pressure Humidity
00:00 +19°C° 0 mm 4 mps 740 mmHg 91%
01:00 +18°C° 0 mm 3 mps 740 mmHg 94%
02:00 +18°C° 0 mm 3 mps 739 mmHg 94%
03:00 +18°C° 0 mm 3 mps 739 mmHg 95%
04:00 +17°C° 0 mm 3 mps 739 mmHg 95%
05:00 +19°C° 0 mm 4 mps 739 mmHg 89%
06:00 +20°C° 0 mm 5 mps 739 mmHg 82%
07:00 +22°C° 0 mm 6 mps 740 mmHg 75%
08:00 +24°C° 0 mm 6 mps 740 mmHg 69%
09:00 +26°C° 0 mm 6 mps 740 mmHg 63%
10:00 +27°C° 0 mm 6 mps 740 mmHg 56%
11:00 +28°C° 0 mm 6 mps 740 mmHg 54%
12:00 +29°C° 0 mm 6 mps 740 mmHg 52%
13:00 +29°C° 0 mm 6 mps 739 mmHg 50%
14:00 +29°C° 0 mm 6 mps 739 mmHg 52%
15:00 +29°C° 0 mm 6 mps 739 mmHg 55%
16:00 +29°C° 0 mm 6 mps 739 mmHg 57%
17:00 +27°C° 0 mm 5 mps 739 mmHg 63%
18:00 +26°C° 0 mm 5 mps 739 mmHg 68%
19:00 +25°C° 0 mm 4 mps 739 mmHg 74%
20:00 +22°C° 0 mm 4 mps 739 mmHg 79%
21:00 +21°C° 0 mm 3 mps 739 mmHg 84%
22:00 +19°C° 0 mm 3 mps 739 mmHg 89%
23:00 +19°C° 0 mm 3 mps 739 mmHg 91%

20 June, Sunday

Time Temperature Precipitation Wind Pressure Humidity
00:00 +18°C° 0 mm 3 mps 739 mmHg 93%
01:00 +17°C° 0 mm 2 mps 739 mmHg 96%
02:00 +17°C° 0 mm 2 mps 739 mmHg 96%
03:00 +17°C° 0 mm 3 mps 739 mmHg 96%
04:00 +16°C° 0 mm 3 mps 739 mmHg 96%
05:00 +18°C° 0 mm 4 mps 739 mmHg 89%
06:00 +20°C° 0 mm 5 mps 739 mmHg 82%
07:00 +21°C° 0 mm 5 mps 739 mmHg 75%
08:00 +23°C° 0 mm 6 mps 739 mmHg 70%
09:00 +24°C° 0 mm 6 mps 739 mmHg 64%
10:00 +27°C° 0 mm 6 mps 738 mmHg 59%
11:00 +27°C° 0 mm 6 mps 738 mmHg 56%
12:00 +28°C° 0 mm 5 mps 738 mmHg 54%
13:00 +29°C° 0 mm 5 mps 738 mmHg 51%
14:00 +29°C° 0 mm 5 mps 738 mmHg 53%
15:00 +29°C° 0 mm 5 mps 737 mmHg 54%
16:00 +29°C° 0 mm 5 mps 737 mmHg 55%
17:00 +28°C° 0 mm 5 mps 737 mmHg 61%
18:00 +26°C° 0 mm 5 mps 737 mmHg 67%
19:00 +25°C° 0 mm 4 mps 737 mmHg 72%
20:00 +23°C° 0 mm 5 mps 737 mmHg 75%
21:00 +22°C° 0 mm 5 mps 737 mmHg 78%
22:00 +21°C° 0 mm 5 mps 737 mmHg 81%
23:00 +20°C° 0 mm 4 mps 737 mmHg 84%

21 June, Monday

Time Temperature Precipitation Wind Pressure Humidity
00:00 +19°C° 0 mm 4 mps 737 mmHg 87%
01:00 +19°C° 0 mm 4 mps 736 mmHg 90%
02:00 +18°C° 0 mm 3 mps 736 mmHg 91%
03:00 +18°C° 0 mm 3 mps 736 mmHg 93%
04:00 +17°C° 0 mm 3 mps 736 mmHg 94%
05:00 +19°C° 0 mm 3 mps 736 mmHg 88%
06:00 +20°C° 0 mm 4 mps 736 mmHg 82%
07:00 +22°C° 0 mm 4 mps 736 mmHg 76%
08:00 +25°C° 0 mm 5 mps 736 mmHg 70%
09:00 +26°C° 0 mm 5 mps 736 mmHg 64%
10:00 +28°C° 0 mm 5 mps 736 mmHg 57%
11:00 +29°C° 0 mm 5 mps 736 mmHg 54%
12:00 +29°C° 0 mm 5 mps 735 mmHg 51%
13:00 +30°C° 0 mm 6 mps 735 mmHg 48%
14:00 +30°C° 0 mm 5 mps 735 mmHg 49%
15:00 +30°C° 0 mm 5 mps 735 mmHg 51%
16:00 +30°C° 0 mm 5 mps 735 mmHg 52%
17:00 +28°C° 0 mm 5 mps 734 mmHg 57%
18:00 +27°C° 0 mm 5 mps 734 mmHg 62%
19:00 +25°C° 0 mm 5 mps 734 mmHg 68%
20:00 +23°C° 0 mm 5 mps 734 mmHg 71%
21:00 +23°C° 0 mm 6 mps 733 mmHg 74%
22:00 +22°C° 0 mm 6 mps 733 mmHg 76%
23:00 +21°C° 0 mm 5 mps 733 mmHg 80%
Show more

We Need Your Consent

Meteoprog and our Service Providers may store and access personal data such as cookies, device identifiers or other similar technologies on your device and process such data to personalise content and ads, as well as provide social media features and to analyse the traffic.

  • Store and/or access information on your device

    Cookies, device identifiers or other information can be stored or accessed on your device for the purposes indicated above.

  • Personalised ads and content, ad and content measurement, audience insights, and products development

    Ads and content can be personalised based on a profile. More data can be added to better personalise ads and content. Ad and content performance can be measured. Insights about the audience who saw the ads and content can be derived. Such data can be used to develop or improve user’s experience, systems and software.

By clicking ‘I Agree’ you will allow the use of indicated cookies, device identifiers, web beacons or other similar technologies. Your settings can be changed in the browser on your device.

For certain purposes, legitimate interests may be relied on, rather than consent. You can read more about this in our Privacy and Cookie Policy.